SVA734 OEJN-OPLA

Flight info

Callsign SVA734
Flight time N/A
Altitude 37000
Route EGREP T532 KODIS Y214 RAPMA/N0490F290 Y214 KUTNA M440 MIDGU/N0488F370 DCT TULBU G652 KUSRA DCT VUSET R462 METBI/N0486F390 R462 BIVIN G214 MIMAL
Aircraft B77W/H-SDE1E2E3FGHIJ2J3J4J5M1RWXY/LB1D1

Departure

Time N/A
Airport King Abdulaziz International Airport (OEJN)

Arrival

Time 2026-04-28 20:09
Airport Allama Iqbal International Airport (OPLA)
Time Latitude Longitude Altitude Speed Heading
2026-04-28 19:57 30.94899 73.86449 10976 ft 337 kts 45°
2026-04-28 19:57 30.96417 73.88468 10738 ft 327 kts 45°
2026-04-28 19:57 30.97899 73.90440 10469 ft 321 kts 45°
2026-04-28 19:57 30.99356 73.92381 10217 ft 314 kts 45°
2026-04-28 19:58 31.00764 73.94258 10083 ft 304 kts 45°
2026-04-28 19:58 31.02144 73.96098 9789 ft 301 kts 45°
2026-04-28 19:58 31.03520 73.97932 9407 ft 301 kts 45°
2026-04-28 19:58 31.04886 73.99756 9109 ft 298 kts 45°
2026-04-28 19:59 31.06231 74.01552 8812 ft 295 kts 46°
2026-04-28 19:59 31.07583 74.03359 8464 ft 294 kts 46°
2026-04-28 19:59 31.08920 74.05147 8146 ft 292 kts 46°
2026-04-28 19:59 31.10244 74.06918 7862 ft 289 kts 46°
2026-04-28 20:00 31.11570 74.08691 7624 ft 288 kts 46°
2026-04-28 20:00 31.12893 74.10464 7387 ft 288 kts 47°
2026-04-28 20:00 31.14207 74.12223 7150 ft 287 kts 46°
2026-04-28 20:00 31.15499 74.13955 6917 ft 285 kts 47°
2026-04-28 20:01 31.16812 74.15716 6679 ft 284 kts 47°
2026-04-28 20:01 31.18120 74.17469 6439 ft 283 kts 47°
2026-04-28 20:01 31.19417 74.19210 6201 ft 282 kts 47°
2026-04-28 20:01 31.20699 74.20931 5966 ft 280 kts 47°
2026-04-28 20:02 31.21960 74.22624 5734 ft 276 kts 47°
2026-04-28 20:02 31.23217 74.24313 5508 ft 271 kts 47°
2026-04-28 20:02 31.24438 74.25954 5318 ft 266 kts 48°
2026-04-28 20:02 31.25631 74.27559 5214 ft 256 kts 48°
2026-04-28 20:03 31.26777 74.29102 5203 ft 243 kts 48°
2026-04-28 20:03 31.27866 74.30566 5105 ft 241 kts 48°
2026-04-28 20:03 31.28969 74.32050 4880 ft 243 kts 48°
2026-04-28 20:03 31.30074 74.33538 4645 ft 241 kts 49°
2026-04-28 20:04 31.31167 74.35011 4407 ft 239 kts 49°
2026-04-28 20:04 31.32262 74.36488 4169 ft 238 kts 49°
2026-04-28 20:04 31.33343 74.37946 3929 ft 237 kts 49°
2026-04-28 20:04 31.34495 74.39278 3668 ft 236 kts 33°
2026-04-28 20:05 31.36002 74.40035 3371 ft 237 kts 11°
2026-04-28 20:05 31.37636 74.40212 3088 ft 233 kts
2026-04-28 20:05 31.39196 74.40247 2820 ft 211 kts
2026-04-28 20:05 31.40602 74.40256 2581 ft 193 kts
2026-04-28 20:06 31.41892 74.40273 2359 ft 178 kts
2026-04-28 20:06 31.43061 74.40294 2162 ft 158 kts
2026-04-28 20:06 31.44109 74.40312 1975 ft 143 kts
2026-04-28 20:06 31.45083 74.40331 1802 ft 136 kts
2026-04-28 20:07 31.46028 74.40347 1622 ft 135 kts
2026-04-28 20:07 31.46654 74.40359 1502 ft 135 kts
2026-04-28 20:07 31.47905 74.40383 1261 ft 136 kts
2026-04-28 20:07 31.48859 74.40401 1069 ft 135 kts
2026-04-28 20:08 31.49800 74.40407 893 ft 136 kts
2026-04-28 20:08 31.50749 74.40434 728 ft 135 kts
2026-04-28 20:08 31.51585 74.40448 713 ft 98 kts
2026-04-28 20:08 31.52115 74.40453 716 ft 54 kts
2026-04-28 20:09 31.52350 74.40458 719 ft 17 kts
2026-04-28 20:09 31.52507 74.40464 719 ft 29 kts
2026-04-28 20:09 31.52722 74.40466 720 ft 29 kts
2026-04-28 20:09 31.52804 74.40521 719 ft 9 kts 86°
2026-04-28 20:10 31.52802 74.40601 719 ft 9 kts 98°
2026-04-28 20:10 31.52768 74.40669 719 ft 10 kts 156°
2026-04-28 20:10 31.52695 74.40678 720 ft 10 kts 181°
2026-04-28 20:10 31.52615 74.40678 720 ft 14 kts 180°
2026-04-28 20:11 31.52484 74.40674 719 ft 18 kts 182°
2026-04-28 20:11 31.52411 74.40729 719 ft 12 kts 99°
2026-04-28 20:11 31.52388 74.40820 719 ft 11 kts 133°
2026-04-28 20:11 31.52311 74.40847 719 ft 11 kts 177°
2026-04-28 20:12 31.52227 74.40850 719 ft 12 kts 179°
2026-04-28 20:12 31.52182 74.40864 719 ft 6 kts 130°